Location: Wald
(31.7579°N, 86.6655°W)
Time: 00:56:22
(UTC+00:00)

Cosmos 2369 Rocket - Pass Details

Date: 14 July 2020
Orbit: 829 x 852 km, 71.0° (Epoch: 11 August)

Event Time Altitude Azimuth Distance (km) Brightness Sun altitude
Rises 04:26:34 0° 349° (N) 3,379 6.4 -32.8°
Reaches altitude 10° 04:29:11 10° 357° (N) 2,445 5.3 -33.0°
Enters shadow 04:32:56 32° 33° (NNE) 1,392 3.5 -33.3°
